Find LINUSS2

NORAD ID: 55247 Int'l Des: 2022-144 Owner: LMSSD Country: US operational
HEOCIRCULAR

实时位置

正在加载3D地球...

关于 LINUSS2

正在加载描述...

即将过境

Passes for default location (London). Set your location on the main map for personalized predictions.

高度历史

Loading altitude history...

两行轨道根数

1 55247U 22144H 26106.68225293 -.00000275 00000-0 00000+0 0 9992
2 55247 5.2299 64.6051 0009286 304.3766 221.9783 0.99052999 11105
Epoch: Apr 16, 2026 • Age: 19 hours

当前状态

高度 36165.1 km
速度 3.06 km/s
星下点 5.20°N, 137.04°E
发射日期 Nov 1, 2022
运行时间 3.4 years
类型 other

技术详情

分类 Payload
质量 21.50 kg
干质量 19.20 kg
总质量 21.50 kg
长度 0.80 m
直径 0.40 m
跨度 1.40 m
形状 Box + 2 pan
制造商 TYVAK/LMSSD
平台类型 Cubesat 12U
阶段状态 In Orbit
所有者/国家 LMSSD/US

Most Searched